This demonstration page uses our WeatherBlox Daily Observations layout. Learn more.

Left ArrowRight Arrow

39.01783, -85.05884

Hourly Observations for April 13, 2021

Temp ( °F °C ) Dew Point ( °F °C ) Humidity (%) Winds ( mph kmh ) Pressure ( in mb ) Visibility ( mi km ) Precip ( " mm )
12:52 am 00:52 Mostly Clear 49 9.4 42 5.6 77 77 Calm 30.01 1016 10 16.0934 0 0
1:52 am 01:52 Mostly Clear 49 9.4 41 5 74 74 W 5 7 30.02 1017 10 16.0934 0 0
2:52 am 02:52 Mostly Clear 50 10 40 4.4 68 68 N 3 6 30.01 1016 10 16.0934 0 0
3:52 am 03:52 Partly Cloudy 48 8.9 40 4.4 74 74 Calm 30.04 1017 10 16.0934 0 0
4:52 am 04:52 Cloudy 46 7.8 42 5.6 86 86 Calm 30.04 1017 10 16.0934 0 0
5:52 am 05:52 Cloudy 48 8.9 41 5 77 77 NW 3 6 30.06 1018 10 16.0934 0 0
6:52 am 06:52 Cloudy 50 10 40 4.4 68 68 N 5 7 30.06 1018 10 16.0934 0 0
7:52 am 07:52 Cloudy 50 10 40 4.4 68 68 N 6 9 30.08 1019 10 16.0934 0 0
8:52 am 08:52 Cloudy 51 10.6 41 5 69 69 WNW 5 7 30.13 1020 10 16.0934 0 0
9:52 am 09:52 Cloudy 53 11.7 42 5.6 66 66 W 3 6 30.15 1021 10 16.0934 0 0
10:52 am 10:52 Cloudy 54 12.2 38 3.3 55 55 Calm 30.16 1021 10 16.0934 0.001 0.001
11:52 am 11:52 Mostly Cloudy 58 14.4 36 2.2 44 44 ESE 5 7 30.15 1021 10 16.0934 0 0
12:52 pm 12:52 Mostly Cloudy 61 16.1 35 1.7 38 38 VRB 3 6 30.13 1020 10 16.0934 0 0
1:52 pm 13:52 Mostly Cloudy 61 16.1 37 2.8 41 41 Calm 30.12 1020 10 16.0934 0 0
2:52 pm 14:52 Mostly Cloudy 63 17.2 35 1.7 35 35 SW 9 15 30.11 1020 10 16.0934 0 0
3:52 pm 15:52 Mostly Cloudy 65 18.3 37 2.8 36 36 Calm 30.09 1019 10 16.0934 0 0
4:52 pm 16:52 Mostly Cloudy 64 17.8 37 2.8 37 37 WSW 6 9 30.08 1019 10 16.0934 0 0
5:52 pm 17:52 Mostly Cloudy 65 18.3 39 3.9 39 39 SW 7 11 30.08 1019 10 16.0934 0 0
6:52 pm 18:52 Partly Cloudy 63 17.2 39 3.9 41 41 W 8 13 30.08 1019 10 16.0934 0 0
7:52 pm 19:52 Mostly Sunny 60 15.6 39 3.9 46 46 WNW 7 11 30.08 1019 10 16.0934 0 0
8:52 pm 20:52 Mostly Clear 59 15 37 2.8 44 44 W 5 7 30.09 1019 10 16.0934 0 0
9:52 pm 21:52 Cloudy 58 14.4 38 3.3 48 48 WSW 3 6 30.11 1020 10 16.0934 0 0
10:52 pm 22:52 Cloudy 57 13.9 40 4.4 53 53 W 5 7 30.11 1020 10 16.0934 0 0
11:52 pm 23:52 Cloudy 55 12.8 39 3.9 55 55 W 6 9 30.1 1019 10 16.0934 0 0

Powered by AerisWeather